Regional Weather Roundup
Issued by NWS

Home | Current Version | Previous Version | Graphics & Text | Print | Product List | Glossary On
Versions: 1 2 3 4 5 6 7 8 9 10 11 12 13 14 15 16 17 18 19 20 21 22 23 24 25 26 27 28 29 30 31 32 33 34 35 36 37 38 39 40 41 42 43 44 45 46 47 48
000
ASUS43 KDMX 310307
RWRIA

WEATHER ROUNDUP FOR IOWA
NATIONAL WEATHER SERVICE DES MOINES IA
1000 PM CDT WED JUL 30 2014

NOTE: "FAIR" INDICATES FEW OR NO CLOUDS BELOW 12,000 FEET WITH NO
SIGNIFICANT WEATHER AND/OR OBSTRUCTIONS TO VISIBILITY.

* - THESE STATIONS ARE NOT NWS STATIONS...THUS NOT UNDER NWS
QUALITY CONTROL.  THEY ALSO DO NOT REPORT WEATHER SUCH
AS PRECIPITATION OR FOG.

IAZ001>003-012>014-020>022-031>034-043>046-310400-
   NORTHWEST IOWA

CITY           SKY/WX    TMP DP  RH WIND       PRES   REMARKS
CARROLL *      MOCLDY    61  59  94 W5        30.11R
CHEROKEE *     CLEAR     63  61  94 CALM      30.11S
DENISON *      CLEAR     63  61  94 SE5       30.10R
LE MARS *      CLEAR     63  59  88 CALM      30.11S
ORANGE CITY *  CLEAR     70  55  60 CALM      30.11S
SHELDON *      CLEAR     59  57  94 SW3       30.10R
SIOUX CITY     CLEAR     68  56  65 SE5       30.11R
SPENCER        CLEAR     64  59  83 CALM      30.11R
STORM LAKE *   CLEAR     64  59  82 W5        30.12R
$$

IAZ055>058-069>071-079>083-090>094-310400-
   SOUTHWEST IOWA

CITY           SKY/WX    TMP DP  RH WIND       PRES   REMARKS
ATLANTIC *     MOCLDY    63  59  88 CALM      30.10S
AUDUBON *      CLEAR     61  57  88 CALM      30.13R
CLARINDA *     CLEAR     63  59  88 CALM      30.12R
COUNCIL BLFS *   N/A     68  55  64 E5        30.11R
CRESTON *      CLEAR     66  55  68 CALM      30.11S
HARLAN  *      CLEAR     61  59  94 CALM      30.15R
LAMONI         CLEAR     65  59  81 CALM      30.10R
SHENANDOAH *   CLEAR     64  61  88 CALM      30.11S
$$

IAZ047>049-059>061-072>074-084-310400-
   CENTRAL IOWA

CITY           SKY/WX    TMP DP  RH WIND       PRES   REMARKS
AMES           CLEAR     63  59  87 CALM      30.09R
ANKENY *       CLEAR     63  59  88 CALM      30.09R
CHARITON *     CLEAR     66  59  77 NW3       30.10R
DES MOINES     CLEAR     70  55  59 NW5       30.09R
GRINNELL*      CLEAR     66  59  77 W3        30.09S
KNOXVILLE *    CLEAR     70  57  64 W3        30.08R
MARSHALLTOWN   CLEAR     67  61  81 W3        30.08R
PELLA *        CLEAR     66  59  77 CALM      30.09S
PERRY *          N/A     64  59  82 CALM      30.09S
$$

IAZ004>006-015-016-023>025-035-036-310400-
   NORTH CENTRAL IOWA

CITY           SKY/WX    TMP DP  RH WIND       PRES   REMARKS
ALGONA *       CLEAR     66  61  82 W3        30.10S
CLARION *      CLEAR     63  61  94 CALM      30.09S
ESTHERVILLE    CLEAR     61  57  87 W3        30.10R
FORT DODGE *   CLEAR     63  59  88 CALM      30.10S
MASON CITY     CLEAR     63  59  87 W3        30.10R
FOREST CITY *  CLEAR     61  61 100 CALM      30.09S
IOWA FALLS *     N/A     63  59  88 CALM      30.10R
$$

IAZ007>011-017>019-026>030-037>042-050>054-066-310400-
   NORTHEAST IOWA

CITY           SKY/WX    TMP DP  RH WIND       PRES   REMARKS
CEDAR RAPIDS   CLEAR     66  61  84 W6        30.06R
CHARLES CITY * CLEAR     66  61  82 W6        30.08S
CLINTON *      CLEAR     64  57  77 NW6       30.08R
DECORAH *      MOCLDY    68  61  77 CALM      30.06R
DUBUQUE        CLEAR     61  59  93 SW3       30.06S
MONTICELLO *   CLEAR     63  61  94 CALM      30.06R
OELWEIN *      CLEAR     66  61  82 W7        30.07S
WATERLOO       CLEAR     67  60  78 W7        30.06R
$$

IAZ064-065-067-068-078-310400-
   EAST CENTRAL IOWA

CITY           SKY/WX    TMP DP  RH WIND       PRES   REMARKS
DAVENPORT      CLEAR     62  59  90 NW3       30.06R
IOWA CITY      CLEAR     67  61  81 SW3       30.07R
MT. PLEASANT * CLEAR     66  61  82 NW3       30.07S
MUSCATINE *    CLEAR     66  61  82 CALM      30.06R
QUAD CITIES    CLEAR     65  59  81 SW5       30.05R
$$

IAZ062-063-075>077-085>089-095>099-310400-
   SOUTHEAST IOWA

CITY           SKY/WX    TMP DP  RH WIND       PRES   REMARKS
BURLINGTON     CLEAR     67  60  78 NW3       30.06R
FAIRFIELD *    CLEAR     64  61  88 NW6       30.08R
FORT MADISON * CLEAR     66  63  88 CALM      30.08R
KEOKUK *       CLEAR     66  63  88 SW3       30.07R
OSKALOOSA *      N/A     66  61  82 W3        30.09R
CENTERVILLE *  CLEAR     59  59 100 CALM      30.11R
OTTUMWA        CLEAR     65  59  81 NW6       30.08R
WASHINGTON *   CLEAR     64  63  94 W5        30.07R
$$

ABBREVIATIONS USED IN REMARKS
   TC - TEMPERATURES IN CELSIUS
  WCI - WIND CHILL INDEX
   HX - HEAT INDEX
  VSB - VISIBILITY
$$




USA.gov is the U.S. government's official web portal to all federal, state and local government web resources and services.